Weather History for Pensacola NAS, FL

Change the Weather History Date:

Friday, October 5, 2012

  Actual Average Record
Temperature  
Mean Temperature 73 °F -  
Max Temperature 82 °F 79 °F 91 °F (1998)
Min Temperature 64 °F 63 °F 50 °F (2010)
Cooling Degree Days 8    
Growing Degree Days 23 (Base 50)    
Moisture  
Dew Point 69 °F    
Average Humidity 92    
Maximum Humidity 100    
Minimum Humidity 69    
Precipitation  
Precipitation 0.00 in - - ()
Sea Level Pressure  
Sea Level Pressure 30.07 in    
Wind  
Wind Speed 3 mph (NE)    
Max Wind Speed 9 mph    
Max Gust Speed -    
Visibility 8 miles    
Events Fog    
Averages and records for this station are not official NWS values.
T = Trace of Precipitation, MM = Missing Value Source: NWS Daily Summary

Daily Weather History Graph

Daily Weather History Graph

Search for Another Location

Airport:

Trip Planner

Search our weather history database for the weather conditions in past years. The results will help you decide how hot, cold, wet, or windy it might be!

Date:

Astronomy

Oct. 05, 2012 Rise Set
Actual Time 6:45 AM CDT 6:29 PM CDT
Civil Twilight 6:21 AM CDT 6:53 PM CDT
Nautical Twilight 5:53 AM CDT 7:20 PM CDT
Astronomical Twilight 5:25 AM CDT 7:48 PM CDT
Moon 10:11 PM CDT (10/5) 11:33 AM CDT (10/5)
Length of Visible Light 12h 31m
Length of Day
11h 43m
Waning Gibbous, 74% of the Moon is Illuminated
Oct 5
Waning Gibbous
Oct 8
Last Quarter
Oct 15
New
Oct 21
First Quarter
Oct 29
Full

Hourly Weather History & Observations

Time (CDT) Temp. Heat Index Dew Point Humidity Pressure Visibility Wind Dir Wind Speed Gust Speed Precip Events Conditions
12:56 AM 66.0 °F - 64.9 °F 96% 30.14 in 10.0 mi Calm Calm - N/A   Clear
1:56 AM 66.9 °F - 66.0 °F 97% 30.14 in 10.0 mi Calm Calm - N/A   Clear
2:56 AM 66.0 °F - 66.0 °F 100% 30.12 in 10.0 mi North 3.5 mph - N/A   Clear
3:56 AM 66.0 °F - 66.0 °F 100% 30.11 in 8.0 mi NNW 4.6 mph - N/A   Clear
4:56 AM 66.0 °F - 66.0 °F 100% 30.12 in 9.0 mi NNW 3.5 mph - N/A   Clear
5:56 AM 64.9 °F - 64.9 °F 100% 30.12 in 8.0 mi North 3.5 mph - N/A   Mostly Cloudy
6:56 AM 64.9 °F - 64.9 °F 100% 30.13 in 7.0 mi NNE 3.5 mph - N/A   Mostly Cloudy
7:56 AM 66.0 °F - 66.0 °F 100% 30.12 in 7.0 mi North 4.6 mph - N/A   Mostly Cloudy
8:56 AM 70.0 °F - 68.0 °F 93% 30.13 in 10.0 mi North 5.8 mph - N/A   Mostly Cloudy
9:56 AM 73.0 °F - 70.0 °F 90% 30.14 in 10.0 mi NNE 5.8 mph - N/A   Mostly Cloudy
10:56 AM 75.0 °F - 70.0 °F 84% 30.13 in 10.0 mi ENE 9.2 mph - N/A   Mostly Cloudy
11:56 AM 75.9 °F - 71.1 °F 85% 30.12 in 10.0 mi East 9.2 mph - N/A   Mostly Cloudy
12:56 PM 79.0 °F - 72.0 °F 79% 30.09 in 10.0 mi East 6.9 mph - N/A   Mostly Cloudy
1:56 PM 81.0 °F 85.2 °F 72.0 °F 74% 30.06 in 10.0 mi ENE 8.1 mph - N/A   Mostly Cloudy
2:56 PM 82.9 °F 88.0 °F 72.0 °F 69% 30.02 in 10.0 mi Calm Calm - N/A   Mostly Cloudy
3:56 PM 82.0 °F 86.7 °F 72.0 °F 71% 30.01 in 10.0 mi SSE 6.9 mph - N/A   Mostly Cloudy
4:56 PM 80.1 °F 84.2 °F 73.0 °F 79% 30.01 in 10.0 mi SSE 8.1 mph - N/A   Scattered Clouds
5:56 PM 78.1 °F - 73.9 °F 87% 30.00 in 10.0 mi SSE 4.6 mph - N/A   Scattered Clouds
6:56 PM 75.0 °F - 73.0 °F 94% 30.00 in 10.0 mi Calm Calm - N/A   Scattered Clouds
7:56 PM 73.0 °F - 72.0 °F 96% 30.01 in 10.0 mi Calm Calm - N/A   Scattered Clouds
8:56 PM 71.1 °F - 70.0 °F 96% 30.02 in 7.0 mi Calm Calm - N/A   Partly Cloudy
9:56 PM 71.1 °F - 71.1 °F 100% 30.03 in 7.0 mi Calm Calm - N/A   Scattered Clouds
10:56 PM 68.0 °F - 68.0 °F 100% 30.03 in 6.0 mi Calm Calm - N/A   Partly Cloudy
11:03 PM 69.8 °F - 69.8 °F 100% 30.03 in 0.5 mi Calm Calm - N/A Fog Fog
11:12 PM 69.8 °F - 69.8 °F 100% 30.02 in 1.5 mi Calm Calm - N/A   Partly Cloudy
11:16 PM 69.8 °F - 69.8 °F 100% 30.02 in 3.0 mi Calm Calm - N/A   Partly Cloudy
11:56 PM 68.0 °F - 68.0 °F 100% 30.03 in 7.0 mi Calm Calm - 0.00 in   Scattered Clouds